星链-5634 (STARLINK-5634 )

导读

STARLINK-5634是美国SpaceX公司星链星座(Starlink)的一颗低轨互联网通信卫星,于2023年1月31日发射入轨,属于星链星座组网批次部署的卫星之一。它运行在近地轨道,依托星链低轨星座的规模化部署,可为全球偏远地区、移动场景提供高速低延迟宽带互联网接入服务,同时具备军民两用属性,既支持商业通信,也可在特殊场景中承担应急通信保障任务。

基本信息
目录编号:
55439
目录名称:
STARLINK-5634
国际标识:
2023-014BA
轨道中心:
EARTH
卫星名称:
星链-5634
卫星全名:
星链-5634 (STARLINK-5634 )
卫星状态:
在轨 (已飞行1312 天)
发射日期:
2023-01-31 UTC
国别 :
美国 (US)
星等 :
--
轨道信息
数据来源 国际轨道数据
星历时间: 2026-09-04T02:48:18+0800
17小时前
查看轨道信息
半长轴: 6950.18km
偏心率: 0.0002486
轨道倾角: 70.000°
近地点辐角 267.431°
升交点赤经 15.492°
平近点角 92.656°
近地点: 570.315km
远地点: 573.771km
周期: 96.107分钟
每日圈数: 14.983342
详细信息
固有亮度:
5
最大亮度:
2.5
卫星平台:
Starlink v1.5
覆盖范围:
全球
运营商:
太空探索技术公司
运营商所在国:
美国
制造商(研发单位):
太空探索技术公司
制造商所在国:
美国
使用方式:
暂无
卫星简介
星链(Starlink)计划是由太空探索技术公司(SpaceX)提出的一个巨型低轨卫星互联网星座项目,计划在2019年至2024年间在太空搭建由约1.2万颗卫星组成的“星链”网络,其中1584颗将部署在地球上空550千米处的近地轨道,并从2020年开始工作。该卫星仍在工作。
2D轨道图
3D轨道图
轨道高度分析图
轨道倾角分析图
轨道综合分析图
查看轨道综合分析图
交会数据列表
事件ID 空间交会对象 最接近时刻(TCA) 交会距离 交会风险概率(CRP) 交会风险指数(CRI) 操作
CDM_260903-031203-679705-543923
AISSAT 1 (36797)
2026-09-03T
03:12:49+0000
2.226 km
极远距离
2.121128E-6 低风险 0.42
CDM_260905-045605-543906-950221
STARS-X (69502)
2026-09-05T
04:56:02+0000
2.464 km
极远距离
1.278162E-6 低风险 0.37